| time (UTC) | temp C | wind direction | speed KPH | gust KPH | rain 1hr cm | rain 24hr cm | rain mn cm | humidity % | barometer mb |
| 20260831083055 | 17 | 6 | 0.0 | 1.6 | 0.00 | 0.03 | 0.00 | 94 | 1020.2 |
| 20260831081550 | 17 | 45 | 0.0 | 1.6 | 0.00 | 0.03 | 0.00 | 94 | 1020.2 |
| 20260831080107 | 17 | 13 | 0.0 | 3.2 | 0.00 | 0.03 | 0.00 | 93 | 1020.3 |
| 20260831074537 | 17 | 3 | 0.0 | 3.2 | 0.00 | 0.03 | 0.00 | 93 | 1020.2 |
| 20260831073035 | 17 | 335 | 0.0 | 3.2 | 0.00 | 0.03 | 0.00 | 93 | 1019.9 |
| 20260831071543 | 17 | 340 | 0.0 | 6.4 | 0.00 | 0.03 | 0.00 | 94 | 1020.1 |
| 20260831070034 | 17 | 41 | 0.0 | 4.8 | 0.00 | 0.03 | 0.00 | 94 | 1020.3 |
| 20260831064531 | 17 | 356 | 0.0 | 3.2 | 0.00 | 0.03 | 0.00 | 94 | 1020.3 |
| 20260831063029 | 17 | 15 | 0.0 | 1.6 | 0.00 | 0.03 | 0.00 | 94 | 1020.5 |
| 20260831061528 | 18 | 348 | 0.0 | 6.4 | 0.00 | 0.03 | 0.00 | 93 | 1020.4 |
| 20260831060025 | 18 | 348 | 0.0 | 1.6 | 0.00 | 0.03 | 0.00 | 92 | 1020.3 |
| 20260831054525 | 18 | 350 | 0.0 | 3.2 | 0.00 | 0.03 | 0.00 | 91 | 1020.2 |
| 20260831053036 | 18 | 2 | 0.0 | 3.2 | 0.00 | 0.03 | 0.00 | 91 | 1020.4 |
| 20260831051527 | 18 | 285 | 1.6 | 4.8 | 0.00 | 0.03 | 0.00 | 91 | 1020.4 |
| 20260831050020 | 18 | 30 | 0.0 | 4.8 | 0.00 | 0.03 | 0.00 | 92 | 1020.3 |
| 20260831044530 | 18 | 18 | 0.0 | 4.8 | 0.00 | 0.03 | 0.00 | 92 | 1020.4 |
| 20260831043019 | 18 | 25 | 0.0 | 4.8 | 0.03 | 0.03 | 0.00 | 93 | 1020.5 |
| 20260831041524 | 18 | 341 | 0.0 | 3.2 | 0.03 | 0.03 | 0.00 | 94 | 1020.2 |
| 20260831040019 | 18 | 345 | 0.0 | 4.8 | 0.03 | 0.03 | 0.00 | 94 | 1020.2 |
| 20260831034511 | 18 | 338 | 0.0 | 4.8 | 0.03 | 0.03 | 0.03 | 94 | 1020.3 |
| 20260831033018 | 19 | 330 | 0.0 | 4.8 | 0.00 | 0.00 | 0.00 | 95 | 1020.3 |
| 20260831031511 | 19 | 41 | 0.0 | 3.2 | 0.00 | 0.00 | 0.00 | 95 | 1020.4 |
| 20260831030009 | 19 | 2 | 0.0 | 4.8 | 0.00 | 0.00 | 0.00 | 96 | 1020.6 |
| 20260831024511 | 19 | 357 | 0.0 | 3.2 | 0.00 | 0.00 | 0.00 | 96 | 1020.5 |
| 20260831023012 | 19 | 317 | 0.0 | 1.6 | 0.00 | 0.00 | 0.00 | 97 | 1020.6 |
| 20260831021514 | 20 | 2 | 0.0 | 1.6 | 0.00 | 0.00 | 0.00 | 97 | 1020.8 |
| 20260831020007 | 20 | 13 | 0.0 | 1.6 | 0.00 | 0.00 | 0.00 | 97 | 1020.8 |
| 20260831014507 | 20 | 339 | 0.0 | 3.2 | 0.00 | 0.00 | 0.00 | 97 | 1020.8 |
| 20260831013006 | 20 | 352 | 0.0 | 0.0 | 0.00 | 0.00 | 0.00 | 96 | 1020.8 |
| 20260831011506 | 20 | 339 | 0.0 | 1.6 | 0.00 | 0.00 | 0.00 | 96 | 1020.7 |
| 20260831010005 | 20 | 20 | 0.0 | 4.8 | 0.00 | 0.00 | 0.00 | 95 | 1020.5 |
| 20260831004504 | 21 | 335 | 0.0 | 6.4 | 0.00 | 0.00 | 0.00 | 94 | 1020.4 |
| 20260831003003 | 21 | 283 | 0.0 | 4.8 | 0.00 | 0.00 | 0.00 | 94 | 1019.9 |
| 20260831001503 | 21 | 7 | 0.0 | 3.2 | 0.00 | 0.00 | 0.00 | 94 | 1019.8 |
| 20260831000002 | 21 | 291 | 0.0 | 6.4 | 0.00 | 0.00 | 0.00 | 93 | 1019.6 |
| 20260830234501 | 21 | 286 | 0.0 | 1.6 | 0.00 | 0.00 | 0.00 | 93 | 1019.4 |
| 20260830233100 | 21 | 319 | 0.0 | 3.2 | 0.00 | 0.00 | 0.00 | 93 | 1019.3 |
| 20260830231607 | 21 | 283 | 0.0 | 1.6 | 0.00 | 0.00 | 0.00 | 93 | 1019.3 |
| 20260830224602 | 21 | 316 | 0.0 | 0.0 | 0.00 | 0.00 | 0.00 | 93 | 1019.5 |
| 20260830223059 | 21 | 45 | 0.0 | 0.0 | 0.00 | 0.00 | 0.00 | 93 | 1019.5 |
| 20260830221558 | 21 | 45 | 0.0 | 3.2 | 0.00 | 0.00 | 0.00 | 92 | 1019.4 |
| 20260830220059 | 21 | 294 | 0.0 | 1.6 | 0.00 | 0.00 | 0.00 | 92 | 1019.5 |
| 20260830214601 | 21 | 336 | 0.0 | 1.6 | 0.00 | 0.00 | 0.00 | 92 | 1019.5 |
| 20260830213106 | 21 | 26 | 0.0 | 0.0 | 0.00 | 0.00 | 0.00 | 91 | 1019.6 |
| 20260830211559 | 22 | 282 | 0.0 | 1.6 | 0.00 | 0.00 | 0.00 | 90 | 1019.3 |
| 20260830210055 | 22 | 81 | 0.0 | 3.2 | 0.00 | 0.00 | 0.00 | 90 | 1019.4 |
| 20260830204554 | 22 | 283 | 0.0 | 0.0 | 0.00 | 0.00 | 0.00 | 90 | 1019.5 |
| 20260830203052 | 22 | 317 | 0.0 | 1.6 | 0.00 | 0.00 | 0.00 | 90 | 1019.5 |
| 20260830201551 | 22 | 268 | 0.0 | 1.6 | 0.00 | 0.00 | 0.00 | 89 | 1019.7 |
| 20260830200050 | 22 | 249 | 0.0 | 3.2 | 0.00 | 0.00 | 0.00 | 88 | 1019.7 |
| 20260830194547 | 22 | 202 | 0.0 | 1.6 | 0.00 | 0.00 | 0.00 | 91 | 1019.8 |
| 20260830193043 | 21 | 309 | 0.0 | 4.8 | 0.00 | 0.00 | 0.00 | 93 | 1020.1 |
| 20260830191541 | 21 | 284 | 0.0 | 4.8 | 0.00 | 0.00 | 0.00 | 95 | 1020.5 |
| 20260830190039 | 20 | 264 | 0.0 | 4.8 | 0.00 | 0.00 | 0.00 | 97 | 1020.6 |
| 20260830184541 | 20 | 229 | 0.0 | 4.8 | 0.00 | 0.00 | 0.00 | 96 | 1020.8 |
| 20260830183035 | 20 | 69 | 1.6 | 11.3 | 0.00 | 0.00 | 0.00 | 96 | 1021.0 |
| 20260830181539 | 19 | 248 | 0.0 | 3.2 | 0.00 | 0.00 | 0.00 | 96 | 1021.2 |
| 20260830180034 | 19 | 267 | 0.0 | 4.8 | 0.00 | 0.00 | 0.00 | 96 | 1021.3 |
| 20260830174532 | 19 | 250 | 0.0 | 3.2 | 0.00 | 0.00 | 0.00 | 96 | 1021.4 |
| 20260830173031 | 20 | 37 | 0.0 | 6.4 | 0.00 | 0.00 | 0.00 | 94 | 1021.6 |
| 20260830171530 | 20 | 300 | 0.0 | 3.2 | 0.00 | 0.00 | 0.00 | 92 | 1021.5 |
| 20260830170029 | 20 | 251 | 0.0 | 1.6 | 0.00 | 0.00 | 0.00 | 92 | 1021.7 |
| 20260830164529 | 20 | 229 | 0.0 | 3.2 | 0.00 | 0.00 | 0.00 | 90 | 1021.5 |
| 20260830163029 | 20 | 285 | 0.0 | 1.6 | 0.00 | 0.00 | 0.00 | 89 | 1021.4 |
| 20260830161524 | 21 | 255 | 0.0 | 3.2 | 0.00 | 0.00 | 0.00 | 87 | 1021.7 |
| 20260830160023 | 21 | 214 | 0.0 | 4.8 | 0.00 | 0.00 | 0.00 | 85 | 1021.8 |
| 20260830154522 | 21 | 202 | 0.0 | 1.6 | 0.00 | 0.00 | 0.00 | 82 | 1022.2 |
| 20260830153018 | 21 | 207 | 0.0 | 3.2 | 0.00 | 0.00 | 0.00 | 80 | 1022.3 |
| 20260830151515 | 21 | 198 | 0.0 | 3.2 | 0.00 | 0.00 | 0.00 | 80 | 1022.2 |
| 20260830150030 | 21 | 251 | 0.0 | 0.0 | 0.00 | 0.00 | 0.00 | 78 | 1022.5 |
| 20260830144515 | 21 | 252 | 0.0 | 0.0 | 0.00 | 0.00 | 0.00 | 77 | 1022.7 |
| 20260830143011 | 21 | 252 | 0.0 | 0.0 | 0.00 | 0.00 | 0.00 | 76 | 1022.7 |
| 20260830141511 | 21 | 252 | 0.0 | 0.0 | 0.00 | 0.00 | 0.00 | 75 | 1022.9 |
| 20260830140010 | 21 | 219 | 0.0 | 0.0 | 0.00 | 0.00 | 0.00 | 73 | 1022.8 |
| 20260830134506 | 20 | 220 | 0.0 | 0.0 | 0.00 | 0.00 | 0.00 | 75 | 1022.9 |
| 20260830133001 | 19 | 220 | 0.0 | 0.0 | 0.00 | 0.00 | 0.00 | 75 | 1022.9 |
| 20260830131559 | 18 | 213 | 0.0 | 0.0 | 0.00 | 0.00 | 0.00 | 77 | 1023.0 |
| 20260830130107 | 18 | 67 | 0.0 | 0.0 | 0.00 | 0.00 | 0.00 | 78 | 1023.1 |
| 20260830124551 | 17 | 67 | 0.0 | 1.6 | 0.00 | 0.00 | 0.00 | 78 | 1023.4 |
| 20260830123049 | 17 | 302 | 0.0 | 0.0 | 0.00 | 0.00 | 0.00 | 79 | 1023.6 |
| 20260830121554 | 17 | 302 | 0.0 | 0.0 | 0.00 | 0.00 | 0.00 | 79 | 1023.5 |
| 20260830120048 | 16 | 302 | 0.0 | 0.0 | 0.00 | 0.00 | 0.00 | 80 | 1023.6 |
| 20260830114603 | 16 | 302 | 0.0 | 0.0 | 0.00 | 0.00 | 0.00 | 81 | 1023.7 |
| 20260830113046 | 16 | 302 | 0.0 | 0.0 | 0.00 | 0.00 | 0.00 | 80 | 1023.9 |
| 20260830111546 | 16 | 304 | 0.0 | 0.0 | 0.00 | 0.00 | 0.00 | 81 | 1023.8 |
| 20260830110045 | 16 | 304 | 0.0 | 0.0 | 0.00 | 0.00 | 0.00 | 80 | 1023.7 |
| 20260830104545 | 16 | 304 | 0.0 | 0.0 | 0.00 | 0.00 | 0.00 | 79 | 1023.5 |
| 20260830103044 | 16 | 304 | 0.0 | 0.0 | 0.00 | 0.00 | 0.00 | 79 | 1023.6 |
| 20260830101548 | 16 | 304 | 0.0 | 0.0 | 0.00 | 0.00 | 0.00 | 79 | 1023.5 |
| 20260830100043 | 16 | 304 | 0.0 | 0.0 | 0.00 | 0.00 | 0.00 | 79 | 1023.5 |
| 20260830094543 | 16 | 305 | 0.0 | 0.0 | 0.00 | 0.00 | 0.00 | 79 | 1023.6 |
| 20260830093041 | 16 | 305 | 0.0 | 0.0 | 0.00 | 0.00 | 0.00 | 79 | 1023.6 |
| 20260830091540 | 17 | 305 | 0.0 | 0.0 | 0.00 | 0.00 | 0.00 | 78 | 1023.7 |
| 20260830090055 | 16 | 306 | 0.0 | 1.6 | 0.00 | 0.00 | 0.00 | 78 | 1023.7 |
| 20260830084538 | 17 | 308 | 0.0 | 0.0 | 0.00 | 0.00 | 0.00 | 78 | 1024.0 |